TECHEDSAT 5

Last updated on July 30, 2017, 12:15 a.m. UTC

1 42066U 98067LB  17209.88343381  .08994048  12072-4  17432-2 0  9992
2 42066  51.6145 172.1074 0006271 221.2784 138.7765 16.30922023 22443

Satellite is not in orbit.